Location: Niagara
(43.2500°N, 79.0670°W)
Time: 12:02:13
(UTC-05:00)

Vanguard 1 Rocket - Visible Passes

Search period start: 13 December 2017 00:00
Search period end: 23 December 2017 00:00
Orbit: 656 x 4222 km, 34.3° (Epoch: 13 December)

Date Brightness Start Highest point End Pass type
(mag) Time Alt. Az. Time Alt. Az. Time Alt. Az.
13 Dec 9.8 17:26:29 10° SW 17:36:06 50° SSE 17:54:09 10° E visible
13 Dec 10.0 19:50:29 10° WSW 20:04:09 63° S 20:11:26 47° SE visible
13 Dec 10.6 22:16:46 10° W 22:28:43 43° WSW 22:28:43 43° WSW visible
14 Dec11.701:27:43S01:27:43S00:46:01Wvisible
14 Dec 9.8 18:39:45 10° WSW 18:51:07 61° S 19:04:17 26° ESE visible
14 Dec 10.3 21:04:55 10° W 21:20:31 57° SSW 21:21:34 56° S visible
14 Dec 11.2 23:32:59 10° W 23:38:52 22° WSW 23:38:52 22° WSW visible
15 Dec 9.7 17:29:30 10° SW 17:38:51 54° SSE 17:56:50 10° E visible
15 Dec 10.0 19:53:41 10° W 20:06:57 61° S 20:14:29 44° SE visible
15 Dec 10.7 22:20:06 10° W 22:31:47 39° SW 22:31:47 39° SW visible
16 Dec 9.8 18:42:56 10° WSW 18:53:59 61° S 19:07:28 25° ESE visible
16 Dec 10.4 21:08:11 10° W 21:23:10 51° SSW 21:24:46 51° S visible
16 Dec 11.3 23:36:50 10° W 23:42:04 19° WSW 23:42:04 19° WSW visible
17 Dec 9.6 17:32:38 10° WSW 17:41:43 56° SSE 17:59:23 10° E visible
17 Dec 10.1 19:56:57 10° W 20:09:45 57° S 20:17:50 40° SE visible
17 Dec 10.8 22:23:35 10° W 22:35:09 35° SW 22:35:09 35° SW visible
18 Dec 9.8 18:46:11 10° WSW 18:56:53 59° S 19:10:59 22° ESE visible
18 Dec 10.5 21:11:32 10° W 21:25:51 45° SSW 21:28:19 44° S visible
18 Dec 11.4 23:41:15 10° W 23:45:39 16° WSW 23:45:39 16° WSW visible
19 Dec 9.6 17:35:51 10° WSW 17:44:40 56° S 18:01:54 10° ESE visible
19 Dec 10.1 20:00:15 10° W 20:12:35 52° SSW 20:21:37 35° SE visible
19 Dec 11.0 22:27:20 10° W 22:38:57 30° SW 22:38:57 30° SW visible
20 Dec 9.8 18:49:29 10° W 18:59:50 56° S 19:15:02 18° ESE visible
20 Dec 10.6 21:15:02 10° W 21:28:32 39° SSW 21:32:23 37° S visible
20 Dec 11.5 23:46:43 10° WSW 23:49:45 13° WSW 23:49:45 13° WSW visible
21 Dec 9.5 17:39:06 10° WSW 17:47:40 56° S 18:04:22 10° ESE visible
21 Dec 10.3 20:03:38 10° W 20:15:26 46° SSW 20:26:01 28° SSE visible
21 Dec 11.1 22:31:31 10° W 22:43:23 25° SW 22:43:23 25° SW visible
22 Dec 9.9 18:52:49 10° W 19:02:48 51° S 19:19:51 13° SE visible
22 Dec 10.8 21:18:44 10° W 21:31:16 32° SSW 21:37:15 28° S visible
